Terug naar catalogus

FENGYUN 1C DEB

ActiefPO
NORAD 36147·DEBRIS·🇨🇳 China

Gelanceerd May 10, 1999 vanaf Taiyuan Satellite Launch Center

Loading…

Volgende Passages (komende 24 uur)

TLE

VerouderendSource: Space-Track

Epoch: Sep 9, 2026, 07:59 UTC

1 36147U 99025DRU 26252.33319608  .00000754  00000-0  72545-3 0  9998
2 36147  98.5041 286.0686 0437009 287.3891  67.9915 13.47212007636400

Volg FENGYUN 1C DEB in realtime met AllMySat

Download on the App Store